Simultaneous Nadir Overpasses (SNOs) Predictions

Prediction of SNOs between GOES-16 and LANDSAT-8 Satellite Orbit:

Table of predicted SNOs for the next 14.0 days since TLE Epoch: 12/23/2023
Index Date Time (GOES-16) GOES-16 Lat,Lon LANDSAT-8 Lat,Lon Distance(km) Time Diff (sec)
1 12/23/2023 14:54:32 -0.03, -75.23 -0.94, -70.98 482.21 80
2 12/24/2023 03:18:36 0.03, -75.20 -0.18, -76.17 110.61 80
3 12/26/2023 03:03:44 0.03, -75.20 0.45, -73.22 226.15 80
4 12/26/2023 15:27:39 -0.03, -75.23 0.67, -78.37 357.27 80
5 12/28/2023 15:12:47 -0.03, -75.24 0.01, -75.41 19.44 80
6 12/30/2023 15:03:14 -0.02, -75.26 -0.60, -72.45 319.42 80
7 12/31/2023 03:24:38 0.02, -75.24 -0.49, -77.64 272.42 80
8 01/02/2024 03:09:45 0.02, -75.27 0.15, -74.68 67.63 80
9 01/04/2024 02:57:31 0.02, -75.30 0.76, -71.71 408.43 80
10 01/04/2024 15:18:45 -0.02, -75.34 0.34, -76.86 174.36 80
